GFSWCAN_prec_cthk_351.txt.gz
RH
83 81 78 70 56 59 64 72 77 78 79 72 65 58 53 57 60 57 55 50 43 38 33 37 37 36 36 36 38 32 32 33 34 40 41 44 50 51 55 51 57 61 61 63 60 58 54 58 60 65 81 86 90 92
89 85 83 72 55 54 62 71 78 81 83 78 70 64 60 65 65 63 62 58 51 42 37 37 38 38 38 38 38 38 38 39 39 43 45 46 47 49 52 56 51 56 52 57 58 53 48 55 59 66 75 81 86 92
98 88 87 76 59 53 57 67 74 84 84 83 73 66 66 69 67 67 67 63 59 49 41 40 39 39 40 41 41 41 42 40 40 41 43 48 46 47 52 52 55 48 52 57 52 46 51 50 50 54 64 69 76 83
91 97 92 76 60 58 54 61 69 78 81 83 76 71 70 73 72 70 71 68 62 57 50 43 45 46 46 45 46 46 46 48 45 44 45 48 49 46 49 49 58 51 50 52 51 42 41 42 45 46 51 62 65 70
97 97 89 68 62 63 51 61 65 73 75 84 83 77 74 73 73 73 74 72 66 63 58 49 49 47 48 48 50 52 53 54 53 49 46 47 47 52 50 50 55 49 50 48 43 36 39 37 39 46 46 46 52 58
98 97 83 62 67 63 55 66 68 64 69 80 83 83 79 76 77 79 77 71 65 68 66 60 52 52 54 53 53 57 58 59 57 53 48 45 48 53 50 47 37 43 47 52 52 49 42 38 37 38 43 38 35 40
97 89 71 66 61 59 60 69 63 64 79 86 89 86 84 82 81 83 79 75 69 73 70 61 52 57 59 59 59 59 62 64 64 58 52 46 48 51 50 46 33 40 48 55 62 62 63 57 49 41 39 38 41 37
85 70 69 60 59 61 64 68 67 72 83 86 89 85 86 88 86 86 81 75 77 77 73 66 56 58 62 63 64 65 67 68 67 63 56 50 48 50 46 36 39 45 54 56 59 63 66 73 73 67 62 56 47 42
67 66 58 58 60 61 62 71 75 78 82 86 88 86 87 88 84 81 78 78 81 81 73 67 61 57 68 68 68 72 71 72 70 69 61 52 46 45 33 35 39 45 49 55 58 64 68 72 80 82 82 77 70 67
54 58 49 63 60 57 66 72 75 79 84 90 90 86 81 83 85 84 82 78 71 70 68 65 64 67 70 75 75 77 76 76 71 69 67 57 41 31 32 33 37 42 54 60 62 66 67 68 74 79 83 86 88 90
47 50 50 63 62 63 69 75 78 84 88 91 90 87 87 88 91 87 78 69 63 62 60 62 64 71 75 80 79 80 80 78 75 67 73 65 45 33 35 33 38 40 46 55 64 65 68 71 76 77 79 82 86 89
47 52 53 71 72 70 80 85 86 89 92 94 95 94 93 90 87 78 72 64 65 61 60 64 68 74 81 85 81 81 80 80 77 73 74 71 42 36 38 36 40 46 48 52 60 68 73 76 74 77 77 77 82 86
48 55 67 76 76 77 86 88 94 95 95 96 96 92 87 85 88 83 72 68 67 64 68 70 75 83 89 86 85 85 83 81 77 78 73 62 46 40 42 42 45 48 50 54 60 69 76 76 74 75 79 78 79 84
54 58 71 78 81 84 92 96 98 98 97 96 96 93 90 92 90 84 76 74 72 75 77 82 90 97 93 94 92 89 84 84 83 82 72 66 51 43 44 47 52 57 62 64 65 68 71 73 76 77 78 77 78 82
71 73 76 80 84 90 97 97 98 98 97 96 95 93 91 86 90 91 86 89 88 89 96 97 97 98 97 96 92 88 89 89 82 79 73 69 51 45 47 49 50 53 53 54 59 65 71 76 81 87 89 91 92 92
91 90 86 88 93 97 97 98 98 97 94 95 92 91 90 95 96 97 97 97 97 97 97 98 97 97 93 91 91 87 92 84 80 80 75 69 49 48 48 46 46 48 53 58 66 73 78 85 91 94 96 97 96 96
98 92 94 97 98 97 98 98 97 94 92 89 85 87 90 93 96 97 97 97 97 97 98 98 97 96 97 97 95 87 86 83 80 80 79 63 47 47 45 46 51 55 59 66 74 82 88 95 97 96 98 98 98 95
96 95 99 98 98 98 97 97 96 92 87 85 88 87 91 95 97 97 97 97 97 97 98 97 97 96 96 96 93 86 88 86 83 84 73 51 47 47 48 51 53 57 65 75 84 89 95 96 96 97 98 98 98 94
98 98 99 98 98 98 97 96 95 90 87 88 88 90 93 96 97 97 97 97 97 97 97 96 97 95 93 92 91 91 90 87 88 76 56 51 50 52 55 57 62 69 75 83 85 91 97 98 98 97 98 98 98 93
98 98 96 98 99 98 97 96 94 92 89 89 92 96 96 97 97 97 97 97 97 97 97 95 92 91 95 97 98 93 92 91 80 60 55 54 57 60 62 66 72 77 82 88 92 97 98 98 99 98 99 98 96 92
98 98 96 99 98 98 98 96 95 94 93 94 95 96 96 96 97 97 97 98 97 95 94 92 93 95 97 98 97 96 93 83 62 56 58 63 65 66 70 75 77 81 85 91 95 99 99 99 99 99 99 98 98 96
97 99 99 98 97 97 97 95 97 95 97 96 97 96 96 96 96 97 97 97 95 91 94 95 94 96 97 96 92 87 78 62 56 58 62 64 67 72 76 79 79 82 87 91 97 98 99 99 99 99 99 99 99 99
98 98 98 97 97 96 95 95 96 96 97 96 97 96 96 96 96 97 97 94 90 91 94 94 96 97 94 90 84 72 60 55 58 63 67 70 74 74 72 74 76 80 90 93 99 99 99 99 99 99 99 99 99 99
98 97 97 97 97 96 94 95 97 97 96 96 96 96 96 96 97 96 95 89 86 89 91 91 92 90 85 77 67 62 62 64 67 72 73 73 73 76 76 76 79 82 88 95 97 98 99 99 99 99 99 99 99 100
97 97 97 96 95 96 96 96 96 96 96 96 96 97 96 97 96 96 93 88 87 89 90 89 87 82 77 71 68 68 68 70 73 79 78 75 74 80 82 81 82 84 86 91 96 98 99 100 100 100 100 100 100 100
96 97 96 95 96 97 96 96 96 96 96 97 96 97 97 97 97 96 93 90 92 91 88 87 85 80 74 72 72 72 74 76 79 82 82 80 82 82 80 78 78 80 85 87 91 96 98 100 100 100 100 100 99 97
96 96 96 96 96 96 96 96 96 96 97 97 97 97 97 97 97 96 97 97 95 93 90 86 81 78 78 79 79 77 76 78 83 89 91 87 86 82 79 78 75 73 80 89 92 94 96 99 100 100 100 99 100 100
96 96 96 96 97 96 96 96 96 97 97 97 97 97 98 97 98 98 97 94 90 87 82 80 79 80 81 79 77 78 82 85 88 95 96 95 93 90 89 87 81 82 83 83 88 92 97 99 99 99 100 100 100 100
96 96 96 96 97 97 97 97 97 97 98 98 98 98 98 95 91 86 80 78 76 77 78 80 81 79 78 78 81 85 89 91 93 100 100 100 97 94 98 97 90 88 95 90 89 92 99 99 99 99 99 99 100 100
96 97 97 97 97 97 97 98 97 97 93 88 80 73 70 70 70 72 73 74 74 74 75 76 76 77 79 82 84 87 92 96 100 100 100 100 100 100 100 100 96 93 93 99 97 92 94 99 100 99 99 99 99 99
95 94 93 91 87 79 71 67 62 59 57 58 62 63 63 65 65 65 67 69 72 76 78 80 82 84 87 89 92 95 99 100 100 100 100 100 100 100 100 100 99 99 97 97 100 100 98 99 100 100 100 100 100 100
64 61 57 56 51 49 48 47 49 48 48 48 50 55 59 63 66 68 69 74 78 81 85 89 91 92 93 95 98 100 100 100 100 100 100 100 100 100 100 100 100 100 99 99 98 100 100 100 100 99 99 100 100 99
45 43 44 47 48 49 47 47 45 47 48 51 54 56 59 62 68 73 75 78 83 87 90 92 94 96 98 99 100 100 100 100 100 100 100 100 100 100 100 98 99 100 99 100 100 100 100 100 100 99 99 99 99 99

GFSWCAN_prec_cthk_354.txt.gz
RH
95 93 92 88 84 75 74 62 52 59 70 75 75 68 65 65 70 69 67 65 62 56 45 41 41 42 43 47 48 42 42 41 42 41 41 40 44 45 47 46 48 53 53 54 58 57 49 49 53 61 73 85 90 96
98 97 95 90 91 83 82 66 58 54 59 70 72 70 68 68 73 73 73 72 71 64 53 47 42 43 45 47 50 50 48 49 49 47 45 44 44 46 47 48 43 49 44 50 46 43 40 46 47 51 60 65 77 88
97 98 98 97 91 85 87 67 61 54 63 68 70 73 73 70 76 77 77 75 75 69 58 50 50 44 45 48 52 53 54 55 55 54 52 49 44 43 47 43 45 46 49 51 47 38 40 41 48 46 46 55 62 70
98 98 97 97 97 92 92 66 61 55 64 67 66 78 80 77 80 79 79 80 82 72 63 58 60 56 50 51 56 57 58 60 62 62 59 54 49 41 46 44 45 43 49 50 49 37 33 35 39 42 42 45 55 60
98 96 94 97 97 96 87 62 62 60 65 65 68 82 82 80 79 78 81 83 79 72 67 63 67 57 58 55 60 63 64 64 67 68 64 58 50 48 47 47 41 40 42 45 43 39 40 35 36 35 41 44 42 45
97 92 96 97 98 95 74 65 61 62 66 69 73 81 82 83 83 85 81 77 76 75 68 69 65 65 60 59 63 67 68 69 71 72 67 60 56 54 50 45 27 30 35 38 40 48 50 53 51 40 36 39 40 32
93 89 93 97 98 88 65 64 63 60 65 70 76 78 79 85 88 88 85 86 79 72 74 72 59 57 60 59 64 71 73 75 77 75 72 64 62 59 53 43 26 29 33 40 43 49 50 52 60 64 60 50 40 37
83 87 91 90 92 69 67 61 61 57 64 68 74 79 81 84 89 87 85 85 81 79 76 72 62 58 59 60 69 75 78 80 78 78 75 68 68 65 52 32 28 30 33 40 44 47 51 51 55 66 73 79 72 63
68 65 72 76 72 67 65 62 63 60 70 74 75 85 86 86 86 86 85 88 85 82 79 75 68 55 56 64 71 77 81 80 78 77 77 73 71 64 43 35 28 30 33 37 43 46 53 56 54 55 62 75 83 86
59 53 62 62 63 69 64 63 68 71 76 84 87 90 85 83 86 89 90 88 79 75 78 74 66 64 61 67 75 82 84 81 78 77 81 76 68 51 46 43 35 31 33 38 41 45 50 52 56 57 57 63 75 81
52 51 52 50 58 62 61 66 74 72 84 93 93 89 88 89 91 91 90 84 73 69 65 66 65 68 67 71 78 87 87 84 79 75 80 77 72 56 52 52 44 35 36 39 43 46 49 52 58 66 70 68 66 78
55 43 44 54 57 61 65 75 85 81 87 93 95 93 92 92 88 89 84 79 79 68 64 67 67 71 75 80 87 88 86 84 81 78 83 78 64 60 59 59 54 41 41 44 48 52 57 59 63 67 68 72 75 70
55 49 56 62 58 68 71 79 82 83 94 96 95 93 91 89 91 95 83 85 82 72 71 73 78 80 85 91 91 89 90 84 80 84 78 69 66 68 67 68 63 47 47 48 51 58 64 67 70 71 73 73 73 72
61 59 66 69 69 72 77 88 90 90 94 97 96 92 90 87 89 91 94 88 80 80 82 84 85 96 96 96 96 97 91 91 89 86 75 68 72 73 73 72 67 53 52 52 54 57 59 62 66 71 74 77 80 83
71 76 80 81 85 85 92 95 95 96 97 96 96 89 86 83 86 91 92 96 95 93 93 95 96 96 97 97 97 97 96 95 86 80 78 79 80 79 78 74 62 50 46 43 46 50 55 61 68 77 84 87 89 92
90 87 82 88 95 97 98 95 98 98 95 94 90 86 86 89 89 93 97 97 97 97 97 97 96 96 95 97 96 93 94 90 84 86 84 85 84 84 82 73 57 44 45 47 49 53 61 69 78 86 91 95 96 97
95 90 90 95 98 98 97 99 98 96 94 88 83 82 87 87 88 92 97 97 97 97 97 97 96 95 97 97 95 91 91 87 85 91 91 89 89 86 80 67 51 49 50 52 55 61 67 74 83 90 97 97 96 97
93 95 98 99 98 98 98 98 98 95 88 84 87 86 90 90 92 96 97 97 97 97 97 97 97 96 96 96 95 92 94 92 97 97 93 93 90 85 77 62 54 57 58 61 64 69 75 83 88 95 97 98 98 97
98 98 98 97 98 98 98 97 97 91 88 88 87 89 93 94 95 97 97 97 97 97 97 96 97 95 92 91 93 97 97 98 98 97 97 95 90 86 71 60 62 64 68 71 73 76 80 86 93 98 98 98 99 99
99 99 99 99 99 98 98 97 93 93 89 90 91 96 98 97 97 97 97 97 97 97 97 96 91 90 94 97 98 98 98 98 98 98 97 92 89 75 65 68 70 74 77 79 79 82 84 89 96 99 99 99 99 99
99 99 98 98 98 98 98 96 95 93 92 93 93 97 96 96 96 97 97 97 97 96 94 92 93 96 97 97 98 98 98 98 98 97 92 86 74 68 71 74 76 79 77 77 75 81 90 91 97 99 99 99 99 99
99 99 98 98 98 97 97 96 97 96 97 96 96 96 96 96 96 97 96 97 96 93 95 96 97 97 97 98 98 98 98 97 93 90 79 67 69 74 78 81 81 78 79 77 77 82 92 96 98 99 99 99 99 99
97 98 98 97 97 96 95 97 97 96 96 96 96 96 96 96 96 97 96 96 94 94 97 97 97 97 97 98 98 98 92 88 81 70 67 71 76 78 81 84 79 78 80 81 81 81 86 95 99 99 99 99 99 99
70 77 84 90 92 96 95 97 96 96 96 96 96 96 96 96 96 96 96 95 95 97 97 97 97 97 98 98 95 89 80 75 72 72 74 76 79 82 85 85 84 85 81 78 78 81 84 88 94 98 100 100 99 99
71 77 76 78 81 85 92 96 97 96 96 96 96 96 96 96 96 96 96 97 97 97 97 97 97 98 96 88 82 79 76 74 75 77 77 78 82 87 92 93 89 86 79 75 73 71 78 87 93 97 98 99 100 99
71 76 78 80 85 90 94 96 96 96 96 96 96 97 97 97 97 97 97 98 98 98 97 95 92 87 84 83 79 76 76 77 78 80 82 84 87 93 98 98 94 89 83 81 77 72 75 83 88 94 98 99 99 100
76 78 81 85 88 92 96 97 97 97 97 97 96 97 97 97 96 97 98 98 98 98 94 89 86 82 79 78 79 79 79 81 82 83 86 89 92 98 99 100 99 97 93 89 86 85 81 81 87 88 93 98 99 99
79 84 88 90 92 95 97 97 97 97 97 97 98 97 98 98 99 99 99 96 89 83 79 76 75 76 77 77 78 79 81 82 83 85 87 90 93 96 99 100 100 100 99 99 93 93 92 87 86 89 91 99 100 100
81 85 87 90 94 97 97 97 98 98 98 98 98 98 99 96 92 86 76 71 70 70 71 72 72 73 75 75 77 79 81 83 86 87 90 93 95 99 100 100 100 100 100 100 100 98 95 96 97 97 94 94 99 100
86 88 92 96 98 98 98 97 97 97 96 91 83 77 73 69 65 65 66 66 66 67 68 69 72 75 77 80 83 86 88 90 91 93 94 96 100 100 100 100 100 100 100 100 100 100 100 100 95 95 99 99 99 99
89 92 94 93 91 89 85 76 66 61 60 59 59 57 59 61 61 62 63 64 67 69 70 72 76 79 82 85 87 89 91 93 95 96 100 100 100 100 100 100 100 100 100 100 100 100 98 99 100 99 99 100 100 100
79 74 66 65 62 59 56 50 44 40 38 41 45 48 52 55 58 59 62 64 66 68 71 75 78 80 83 87 89 91 94 97 99 100 100 100 100 100 100 99 100 100 100 99 99 100 100 100 100 100 100 100 100 100
54 51 50 48 41 33 28 24 31 36 40 44 47 52 54 56 60 64 66 68 72 75 76 76 76 79 82 87 90 91 94 97 100 100 100 100 100 100 100 98 99 100 100 100 100 100 100 100 100 100 100 100 100 100

GFSWCAN_prec_cthk_357.txt.gz
RH
79 95 98 96 94 93 88 84 82 84 60 55 53 59 62 68 68 71 73 75 75 74 64 55 50 47 47 45 48 46 50 49 52 54 55 54 50 45 44 39 40 45 47 46 48 48 39 36 41 46 53 62 72 84
89 97 98 98 97 95 91 87 90 90 66 59 53 60 62 71 72 74 77 77 76 79 70 62 53 54 56 51 48 51 52 56 57 59 60 60 55 50 47 45 36 42 39 43 38 32 28 34 36 41 40 41 55 64
91 95 96 99 99 98 95 94 94 94 68 59 60 61 63 76 76 79 81 80 79 79 70 61 58 58 60 58 53 50 56 59 61 63 65 65 61 55 50 44 42 37 39 46 42 30 30 30 32 38 43 39 39 50
90 95 98 97 98 98 98 97 95 94 70 61 61 63 66 73 79 77 83 83 81 82 73 64 62 61 62 58 57 54 59 63 67 70 73 73 67 55 54 46 45 36 40 44 42 35 31 30 28 31 35 40 39 40
92 96 97 98 97 97 97 96 96 91 70 63 56 62 64 70 75 78 81 82 79 82 80 69 64 64 67 66 61 59 64 68 72 75 77 75 70 64 62 57 47 36 32 38 36 27 32 36 39 36 32 37 43 43
96 98 99 98 98 94 95 98 96 88 64 65 56 63 64 72 76 83 82 78 80 84 80 74 67 68 66 65 63 62 67 72 75 79 78 77 74 70 67 63 36 34 30 27 29 34 36 39 43 47 47 49 42 40
99 99 99 98 92 91 97 98 95 78 65 62 65 68 78 76 83 89 90 86 87 89 84 77 70 65 65 63 64 63 69 75 80 82 80 78 79 75 72 64 39 35 33 32 32 37 40 39 40 44 47 54 66 72
98 99 98 94 84 88 92 87 83 70 68 66 68 67 77 80 87 87 85 88 89 93 91 81 72 64 68 68 65 66 71 76 81 82 82 78 80 79 72 50 43 43 41 39 34 36 39 43 44 44 48 49 52 62
98 98 93 87 80 76 81 80 75 74 73 67 74 77 78 86 87 86 86 89 90 91 87 82 76 65 65 65 67 69 73 78 81 82 81 79 78 77 58 53 46 46 48 46 41 37 41 43 45 49 51 52 54 54
99 98 89 79 74 67 68 72 66 78 76 74 79 86 82 81 85 88 88 88 84 84 86 81 76 73 68 68 72 74 79 84 84 80 81 78 71 63 56 56 53 51 54 54 52 42 42 44 46 48 50 55 59 61
99 98 88 76 71 70 69 63 69 69 73 78 86 88 82 85 89 91 91 87 84 80 76 78 74 72 69 70 75 78 87 91 85 77 83 77 73 61 56 59 59 58 58 60 60 51 47 47 53 57 61 69 71 71
98 94 84 75 77 70 64 68 76 72 80 84 87 89 90 89 89 90 87 85 89 82 76 78 74 74 75 77 80 89 93 91 87 82 85 79 66 61 61 68 68 64 65 66 66 60 54 53 58 64 65 70 78 82
94 86 82 75 76 73 72 68 79 81 86 90 94 94 91 90 92 89 86 87 94 90 85 85 80 83 84 87 92 95 95 88 84 86 78 71 64 66 71 76 74 73 73 74 73 67 56 57 58 59 63 70 75 81
86 85 83 76 80 85 85 86 85 90 97 97 95 92 91 86 85 82 85 91 95 90 92 89 88 92 93 96 96 96 96 94 93 88 79 72 68 74 82 81 81 82 80 78 73 62 49 48 49 53 57 65 76 85
87 90 90 86 86 93 97 97 97 99 98 98 96 89 81 79 80 83 91 97 97 97 97 96 96 97 97 97 96 97 97 95 93 84 80 76 83 87 87 85 86 84 83 78 68 54 50 49 50 55 62 70 83 91
96 96 91 93 95 97 98 95 97 98 95 95 88 84 81 83 86 88 94 97 97 97 97 97 96 96 95 96 96 95 96 90 87 89 87 87 93 92 90 91 91 87 83 78 68 55 56 57 58 63 69 77 86 95
98 93 97 95 97 98 97 98 98 94 91 86 80 81 86 89 90 91 93 97 97 97 97 97 97 96 96 96 95 95 93 91 91 91 95 97 97 97 97 95 91 88 86 76 63 63 65 64 66 70 76 86 91 98
95 96 99 99 98 98 98 98 98 96 88 85 86 83 89 91 93 94 97 97 97 97 97 97 97 96 96 96 94 91 93 96 97 97 97 98 98 98 98 96 94 91 82 72 68 72 72 72 73 76 81 87 96 99
99 99 98 98 99 99 98 97 97 94 88 88 88 90 93 95 96 97 98 97 97 97 97 96 97 95 93 92 94 97 98 98 97 97 98 98 98 98 98 98 96 86 79 76 78 77 75 72 71 75 82 89 96 99
98 94 82 81 92 99 98 97 96 96 93 94 94 97 98 97 98 97 97 97 97 97 97 96 94 94 97 98 98 97 97 97 97 97 98 98 98 98 98 95 86 81 81 83 81 77 73 72 76 81 89 92 98 99
55 54 55 60 78 97 99 95 96 95 95 95 95 97 96 96 97 97 97 97 97 96 96 96 97 97 98 98 97 98 98 98 98 98 98 98 98 95 86 82 79 81 84 85 80 79 80 79 77 78 89 94 97 99
39 41 47 53 59 65 72 77 80 73 73 76 80 83 86 92 96 97 97 97 97 97 97 97 97 97 97 97 97 97 98 98 98 98 97 90 82 79 79 78 80 85 88 88 84 84 84 78 78 81 84 90 96 99
39 44 49 52 59 64 64 62 65 66 73 76 82 86 87 88 91 94 96 96 98 97 97 97 97 98 97 98 98 98 98 98 97 88 82 77 78 80 80 78 82 84 90 94 92 89 81 73 73 75 81 89 96 96
48 52 55 58 59 63 62 64 67 71 76 80 85 86 87 89 91 93 94 97 98 98 97 97 97 97 98 98 98 98 96 87 78 77 78 81 83 84 84 83 84 87 91 98 97 90 79 75 73 72 76 84 93 98
56 60 62 63 66 64 64 67 72 77 78 82 85 87 88 90 91 93 95 96 98 98 98 98 98 99 98 95 91 82 78 76 76 78 81 85 87 87 88 88 86 89 94 99 99 96 86 82 78 80 74 76 82 87
65 68 67 66 67 69 72 75 77 80 83 85 86 87 89 94 97 98 97 99 99 99 99 99 98 94 89 81 76 74 74 76 78 80 83 86 87 88 89 89 90 92 96 100 99 100 97 91 86 81 80 78 78 83
68 69 71 73 76 78 79 80 81 84 86 86 88 92 96 97 97 97 99 99 99 99 96 91 85 79 76 75 76 75 76 77 78 79 81 83 85 87 89 90 90 92 96 100 100 100 100 100 98 93 89 86 85 84
71 73 76 77 79 80 82 84 86 87 89 95 97 98 98 99 99 99 99 98 93 84 77 71 69 69 70 71 72 74 74 75 77 79 80 83 87 90 91 92 93 96 100 100 100 100 100 100 100 100 98 96 93 89
73 75 76 78 81 86 87 89 93 97 98 98 98 99 99 99 99 90 78 73 69 66 65 66 67 68 68 69 71 73 74 74 77 80 83 86 90 92 94 94 97 100 100 100 100 100 100 100 100 100 100 100 98 94
76 79 82 85 87 90 95 97 98 98 98 98 96 89 77 71 68 66 64 63 62 63 64 64 65 66 67 69 72 73 75 78 80 83 87 90 91 95 97 99 100 100 100 100 100 100 100 100 100 99 100 99 98 99
86 86 88 92 96 96 95 89 80 72 67 63 62 62 58 58 58 58 58 59 59 59 59 60 63 65 68 70 73 75 77 80 83 87 90 91 92 97 99 100 100 100 100 100 100 100 100 100 100 100 100 100 100 100
88 86 81 77 72 66 59 49 43 41 41 41 44 45 49 54 55 55 58 60 61 59 59 60 62 65 68 72 76 78 79 82 86 89 90 92 94 99 100 100 99 100 100 100 100 100 100 100 100 100 100 100 100 100
62 56 50 39 33 31 27 29 36 42 44 46 50 53 54 56 58 60 61 62 62 61 60 59 59 59 62 68 73 75 77 81 85 90 90 93 97 100 99 98 98 99 100 100 100 100 100 100 100 100 100 100 100 100

GFSWCAN_prec_cthk_363.txt.gz
RH
65 64 67 76 80 91 95 94 93 93 92 91 89 91 91 71 56 54 59 67 76 81 79 75 74 74 74 70 63 60 59 55 53 54 56 57 59 63 61 56 54 49 45 37 34 38 33 27 29 30 30 26 29 35
59 63 69 74 80 89 96 97 94 95 92 91 93 95 93 79 58 56 61 69 77 84 82 76 77 75 75 69 63 60 63 59 56 55 58 60 65 67 66 62 58 57 47 48 39 32 28 27 28 26 22 21 27 33
66 64 68 72 83 87 94 95 96 95 96 93 95 96 95 85 67 57 61 69 74 78 80 80 77 73 72 67 65 66 66 62 61 58 58 62 66 64 68 67 63 59 55 52 47 34 30 32 31 31 27 24 26 29
66 67 71 75 81 89 95 92 94 95 97 96 94 95 93 89 80 64 63 66 76 80 83 84 82 75 73 68 66 66 67 66 66 65 64 66 65 63 66 66 67 61 62 55 52 41 37 36 37 34 33 32 30 28
74 74 73 79 87 94 95 94 94 96 97 96 95 97 92 93 84 76 73 68 76 86 89 85 80 74 72 72 69 68 68 73 74 73 72 69 66 65 68 71 67 61 60 57 48 44 40 38 38 40 40 40 40 35
73 74 74 81 90 95 94 95 95 96 97 98 98 98 96 89 81 75 77 67 75 83 87 88 83 75 71 69 69 70 72 73 74 75 72 71 69 67 73 71 59 58 55 49 49 44 43 42 46 47 48 46 44 43
68 69 75 86 94 93 93 95 96 98 98 98 98 98 96 85 73 68 75 76 84 89 95 92 85 77 74 74 74 73 75 74 74 74 74 73 73 75 76 72 56 56 55 51 50 50 50 50 50 52 51 51 51 49
72 78 81 91 93 93 98 98 96 98 98 98 98 97 94 85 75 69 72 82 86 94 96 95 89 80 78 78 77 76 75 74 73 72 76 76 77 77 75 61 58 57 53 51 51 51 53 55 55 56 57 59 55 54
69 86 90 91 93 95 98 98 97 98 98 98 98 97 95 88 76 76 80 85 92 96 96 96 94 84 77 81 79 77 75 72 73 73 75 77 77 75 62 62 61 58 57 54 53 55 55 56 56 58 61 63 64 64
71 75 84 90 96 99 99 98 96 98 97 98 98 97 92 93 92 87 85 90 91 88 89 90 94 91 84 82 82 80 78 76 76 74 77 78 72 63 61 62 64 61 60 58 59 61 61 60 61 64 67 70 70 72
76 88 92 93 92 96 99 97 98 98 98 98 98 98 96 96 94 93 94 92 89 86 85 87 93 95 88 88 86 83 83 83 82 79 82 78 70 60 59 63 64 62 63 64 66 65 67 69 72 74 76 77 78 81
85 90 91 93 97 96 97 98 97 99 99 98 99 98 97 92 90 92 90 90 89 86 88 90 93 93 94 89 88 84 87 86 87 83 86 79 65 62 66 67 66 64 66 68 69 72 73 75 78 79 81 83 84 79
85 90 97 93 93 97 95 96 97 99 98 98 98 97 96 92 94 91 88 86 87 84 94 96 97 96 95 95 93 93 93 91 88 89 83 72 70 73 72 74 73 73 74 75 77 80 80 79 82 84 82 78 68 62
84 88 94 96 95 96 95 95 99 99 99 98 97 95 92 90 87 81 81 84 86 90 97 97 97 96 95 94 93 94 94 92 89 88 80 73 79 86 76 78 80 78 82 84 84 85 86 89 86 82 76 69 64 59
78 89 97 97 98 96 94 97 99 99 98 98 97 91 84 80 76 78 86 90 96 97 93 88 87 87 87 89 90 94 96 94 88 87 85 93 97 90 88 86 87 90 88 88 92 92 92 89 84 78 76 70 68 67
83 86 96 99 99 99 96 97 99 99 98 98 93 87 85 76 67 70 75 85 87 85 84 86 85 85 84 87 88 92 92 88 85 94 98 97 97 97 94 90 96 96 93 97 98 97 94 87 81 80 79 75 74 74
83 85 97 99 99 98 99 98 99 99 97 93 86 85 86 74 64 65 69 74 80 79 80 82 83 85 88 89 87 88 87 89 98 98 98 98 97 97 94 95 98 98 98 98 98 98 94 87 84 82 79 80 80 78
84 92 99 99 98 98 97 99 98 96 91 87 85 82 73 62 60 62 65 72 74 77 78 79 81 82 88 87 87 90 92 96 98 98 97 98 98 98 98 98 98 98 98 98 98 94 86 83 83 80 79 83 84 82
90 98 99 99 99 99 98 97 98 92 91 89 86 71 60 56 59 63 69 72 75 78 79 79 84 83 86 87 88 91 94 96 97 97 97 97 98 98 98 98 98 98 98 98 90 86 85 77 75 78 82 86 89 88
95 99 99 99 99 98 98 95 93 96 93 87 73 63 57 56 58 63 69 72 74 77 80 81 82 86 88 90 91 92 95 97 98 97 97 98 98 98 98 98 98 97 90 87 85 82 85 81 77 77 79 87 90 92
99 99 99 99 98 98 98 97 96 93 81 66 57 52 54 55 60 66 70 75 79 81 82 84 86 89 89 89 90 94 98 98 98 98 97 98 98 98 98 98 89 88 84 85 86 86 87 85 82 79 79 82 93 97
98 98 98 98 97 96 92 88 79 66 60 54 54 57 58 61 69 77 81 79 79 82 84 88 89 89 90 91 93 97 98 98 98 98 98 98 98 93 87 86 87 85 83 86 87 87 87 88 87 86 84 84 92 99
96 92 89 84 79 75 68 61 57 54 57 58 60 66 74 80 82 82 80 82 85 86 88 89 89 90 91 93 95 98 98 98 99 99 96 90 84 83 86 83 78 83 86 84 85 86 88 88 89 89 88 90 93 100
75 71 67 65 65 62 58 57 55 57 62 70 79 83 83 82 83 83 83 85 87 86 87 88 90 92 94 96 99 99 99 98 92 89 84 83 83 84 80 78 80 83 86 87 84 83 84 88 90 90 93 94 97 100
72 70 66 64 60 57 56 59 65 74 81 84 83 82 81 85 86 86 85 84 85 87 90 91 93 96 98 99 100 97 92 87 84 81 80 79 76 76 76 77 77 77 77 78 80 82 86 89 90 92 93 96 98 100
61 63 64 64 62 63 70 79 81 79 79 80 81 85 88 89 87 85 82 87 89 92 96 98 99 99 98 95 90 86 82 76 69 64 62 60 59 60 63 65 68 72 75 79 81 83 87 90 91 94 97 99 100 100
71 72 72 72 74 76 79 80 81 82 85 88 89 91 90 90 88 86 91 95 97 98 98 98 98 92 84 76 69 61 56 54 52 50 54 58 61 63 65 67 70 73 76 80 82 88 90 92 95 98 100 100 100 100
68 68 71 75 78 80 82 84 87 89 90 91 90 92 92 93 94 98 99 99 99 97 90 79 71 65 57 50 49 49 49 51 53 54 55 59 62 64 66 69 72 76 80 83 89 90 93 99 100 100 100 100 100 100
75 75 77 81 85 88 90 90 90 92 92 92 93 97 99 99 99 100 94 82 70 63 59 53 49 47 48 48 46 43 42 44 47 46 49 52 59 66 70 71 76 80 84 89 91 94 97 100 100 100 100 100 100 100
81 87 91 91 90 91 92 93 92 94 97 98 99 99 93 82 73 66 63 59 55 52 51 49 47 45 39 34 32 33 38 43 50 53 56 59 63 67 72 76 80 83 90 91 92 94 98 100 100 100 100 100 100 100
91 92 93 92 92 94 95 96 94 88 77 68 63 58 56 55 53 53 54 54 53 51 47 42 38 37 36 34 34 33 33 38 43 51 59 63 69 72 76 79 83 87 91 91 92 96 99 100 100 100 100 100 100 100
86 89 93 91 88 81 73 65 59 53 51 50 49 48 48 51 53 54 53 50 47 44 42 41 42 41 40 40 42 45 48 49 49 51 57 64 70 75 79 81 84 89 92 94 98 100 100 100 100 100 100 100 100 100
64 57 48 42 42 43 43 44 45 46 45 45 47 49 51 53 55 49 47 47 47 46 45 46 48 48 47 46 46 49 54 59 63 65 66 70 75 78 81 82 87 92 95 99 100 100 100 100 100 100 100 100 100 100